User: anonymous   Login
Location: Unspecified
(0.0000°N, 0.0000°E)
Time: 04:02:32
(UTC+00:00)
Language:

STSS ATRR (USA 205) - Orbit

View from above orbital plane
View from above orbital plane
View from above satellite
View from above satellite

Ground track
Ground track

The orbit data is extracted from the following two-line orbital elements,

1 34903U 09023A   18270.91136852 0.00000000  00000-0  00000-0 0    09
2 34903  98.9736   7.0382 0011000 312.9589  47.0410 14.06611341    05
Epoch (UTC): 27 September 2018 21:52:22
Eccentricity: 0.0011000
inclination: 98.9736°
perigee height: 863 km
apogee height: 879 km
right ascension of ascending node: 7.0382°
argument of perigee: 312.9589°
revolutions per day: 14.06611341
mean anomaly at epoch: 47.0410°
orbit number at epoch: 0

The dashed part of the orbit path shows where the satellite is in the earth's shadow,  

DLR